{"data":{"norad_id":57517,"intl_designator":"2023-114A","name":"COSMOS 2569 (703K)","alt_names":[],"object_type":"PAYLOAD","status":"INACTIVE","operator":null,"country":"CIS","launch_date":"2023-08-07","launch_site_code":"PLMSC","launch_vehicle":null,"mission":null,"orbit_class":"UNKNOWN","rcs_meters":null,"size_class":null,"mass_kg":null,"dimensions":null,"purposes":["earth_obs","nav"],"wikipedia_slug":null,"has_3d_model":false,"image_url":null,"decayed_at":null,"tle_current":{"epoch":"2026-05-23T20:26:51.834048Z","epoch_age_seconds":184623,"freshness":"STALE","line1":"1 57517U 23114A   26143.85198882 -.00000027  00000+0  00000+0 0  9999","line2":"2 57517  65.2892  73.4407 0011626 296.5431  63.3318  2.13103740 21749","mean_motion":2.1310374,"eccentricity":0.0011626,"inclination_deg":65.2892,"raan_deg":73.4407,"arg_perigee_deg":296.5431,"mean_anomaly_deg":63.3318,"bstar":0,"rev_number":2174,"period_min":675.72723031515,"perigee_km":19100.093110254,"apogee_km":19159.4040458,"semimajor_km":25507.885578027,"source":"CELESTRAK","updated_at":"2026-05-25T13:38:23.897212Z"}}}